Regional Weather Roundup
Issued by NWS Columbia, SC

Home | Current Version | Previous Version | Text Only | Print | Product List | Glossary On
Versions: 1 2 3 4 5 6 7 8 9 10 11 12 13 14 15 16 17 18 19 20 21 22 23 24 25 26 27 28 29 30 31 32 33 34 35 36 37 38 39 40 41 42 43 44 45 46 47 48 49 50
000
ASUS42 KCAE 192310
RWRCAE
REGIONAL WEATHER ROUNDUP
NATIONAL WEATHER SERVICE COLUMBIA SC
600 PM EST FRI DEC 19 2014

NOTE: "FAIR" INDICATES FEW OR NO CLOUDS BELOW 12,000 FEET WITH NO
SIGNIFICANT WEATHER AND/OR OBSTRUCTIONS TO VISIBILITY.

NOT ALL STATIONS ARE QUALITY CONTROLLED BY THE NATIONAL
WEATHER SERVICE. USE DATA WITH CAUTION...ESPECIALLY
DEWPOINT OBSERVATIONS.

SCZ001>056-GAZ040-063>065-077-200000-
...UPSTATE SOUTH CAROLINA...

CITY           SKY/WX    TMP DP  RH WIND       PRES   REMARKS
ANDERSON       MOCLDY    50  35  56 CALM      30.11R
LIBERTY        FAIR      50  29  43 MISG      30.11R
SPARTANBURG    FAIR      52  34  50 CALM      30.11R
CLEMSON        CLOUDY    54  33  45 SW3       30.12R
GREENVILLE     CLOUDY    53  32  44 SE3       30.13R
GREENWOOD      MOCLDY    48  39  71 CALM      30.13R
GREER          MOCLDY    50  34  54 SE3       30.11R
ROCK HILL      MOCLDY    48  32  53 CALM      30.13R
CHESTER        FAIR      50  34  53 CALM      30.13R
LAURENS        FAIR      48  41  76 CALM      30.12R


...CENTRAL SOUTH CAROLINA...

CITY           SKY/WX    TMP DP  RH WIND       PRES   REMARKS
COLUMBIA APT   PTCLDY    56  40  55 CALM      30.11R
COLUMBIA OWENS PTCLDY    54  40  59 CALM      30.13R
DARLINGTON     PTCLDY    48  37  66 CALM      30.15R
FLORENCE       PTCLDY    48  36  63 CALM      30.13R
MCENTIRE ANGB  MOCLDY    51  39  65 NE3       30.12R
ORANGEBURG     MOCLDY    55  42  61 E3        30.11S
SUMTER SHAW    PTCLDY    50  36  58 NE5       30.11R
NEWBERRY       FAIR      46  37  71 E3        30.15R
AIKEN          FAIR      54  41  62 CALM      30.13S
BARNWELL       FAIR      55  45  67 CALM      30.11S
CAMDEN         FAIR      48  36  61 CALM      30.14R
LANCASTER      FAIR      48  37  66 MISG      30.13R
WINNSBORO      FAIR      50  37  62 NE5       30.11S


...EASTERN AND COASTAL SOUTH CAROLINA...

CITY           SKY/WX    TMP DP  RH WIND       PRES   REMARKS
MYRTLE BEACH   CLEAR     52  39  62 CALM      30.16R
N MYRTLE BCH   PTCLDY    47  41  80 CALM      30.14R
CONWAY         FAIR      46  41  81 CALM      30.14R
MARION         FAIR      46  36  66 CALM      30.14R
HARTSVILLE     FAIR      50  30  46 CALM      30.14R
FLORENCE       PTCLDY    48  36  63 CALM      30.13R
DARLINGTON     PTCLDY    48  37  66 CALM      30.15R
CHARLESTON APT MOCLDY    54  44  69 SE6       30.13R
MOUNT PLEASANT FAIR      48  45  87 CALM      30.13R
WALTERBORO     PTCLDY    55  43  62 CALM      30.12S
BEAUFORT       CLOUDY    55  45  68 E3        30.11S


...EASTERN GEORGIA...

CITY           SKY/WX    TMP DP  RH WIND       PRES   REMARKS
AUGUSTA BUSH F MOCLDY    53  42  66 CALM      30.10R
AUGUSTA DANIEL MOCLDY    59  39  47 S5        30.10R
THOMSON        MOCLDY    55  46  73 CALM      30.15R
WASHINGTON     FAIR      55  48  76 N3        30.10R
CLAXTON        FAIR      52  48  87 CALM      30.10S
SYLVANIA       MOCLDY    53  49  87 CALM      30.11S
STATESBORO     MOCLDY    50  46  88 CALM      30.09S
SAVANNAH       CLOUDY    57  43  59 CALM      30.10S


...SOUTHERN NORTH CAROLINA...

CITY           SKY/WX    TMP DP  RH WIND       PRES   REMARKS
CHARLOTTE      MOCLDY    51  28  41 CALM      30.13R
MONROE         MOCLDY    50  29  44 CALM      30.12R
WADESBORO      CLOUDY    45  38  76 CALM      30.13S
ROCKINGHAM     CLOUDY    51  32  47 N3        30.14R
RUTHERFORDTON  CLOUDY    49  33  52 E3        30.13R
ASHEVILLE      CLOUDY    45  28  51 N9        30.11R

$$



USA.gov is the U.S. government's official web portal to all federal, state and local government web resources and services.